Regional Weather Roundup
Issued by NWS Charleston, WV

Home | Current Version | Previous Version | Graphics & Text | Print | Product List | Glossary On
Versions: 1 2 3 4 5 6 7 8 9 10 11 12 13 14 15 16 17 18 19 20 21 22 23 24 25 26 27
000
ASUS41 KRLX 161310
RWRRLX
West Virginia Regional Weather Roundup
National Weather Service Charleston WV
900 AM EDT MON OCT 16 2017

Note: "fair" indicates few or no clouds below 12,000 feet with no
significant weather and/or obstructions to visibility.

WVZ003-161400-
Northern Panhandle of West Virginia

CITY           SKY/WX    TMP DP  RH WIND       PRES   REMARKS
WHEELING       CLOUDY    48  43  82 N9        30.20R
$$

WVZ009-161400-
Northwest West Virginia

CITY           SKY/WX    TMP DP  RH WIND       PRES   REMARKS
PARKERSBURG    PTSUNNY   52  42  69 NW3       30.25R
$$

WVZ006-161400-
Western West Virginia

CITY           SKY/WX    TMP DP  RH WIND       PRES   REMARKS
HUNTINGTON     MOSUNNY   50  43  77 NW7       30.25R
$$

WVZ015-161400-
West Central West Virginia

CITY           SKY/WX    TMP DP  RH WIND       PRES   REMARKS
CHARLESTON     CLOUDY    50  44  80 W5        30.22R
$$

WVZ022-031-161400-
North Central West Virginia

CITY           SKY/WX    TMP DP  RH WIND       PRES   REMARKS
CLARKSBURG     CLOUDY    52  42  69 NW8       30.19R
MORGANTOWN     CLOUDY    50  42  74 N8        30.20R
$$

WVZ025-035-042-045-161400-
Southern West Virginia

CITY           SKY/WX    TMP DP  RH WIND       PRES   REMARKS
BECKLEY        CLOUDY    46  42  86 NW10      30.19R
LOGAN          CLOUDY    50  45  81 CALM      30.22R
BLUEFIELD      CLOUDY    44  39  82 VRB6      30.20R
LEWISBURG      CLOUDY    50  42  73 NW6       30.17R
$$

WVZ047-161400-
Northern Mountains of West Virginia

CITY           SKY/WX    TMP DP  RH WIND       PRES   REMARKS
ELKINS         CLOUDY    49  42  77 NW6       30.18R
$$

WVZ052-161400-
Eastern Panhandle of West Virginia

CITY           SKY/WX    TMP DP  RH WIND       PRES   REMARKS
MARTINSBURG    CLOUDY    56  42  59 N16G23    30.09R
PETERSBURG     CLOUDY    56  42  59 NW9       30.14R
$$




USA.gov is the U.S. government's official web portal to all federal, state and local government web resources and services.